Location: Willingham
(52.3167°N, 0.0667°E)
Time: 00:33:48
(UTC+00:00)

SeaSat 1 - Pass Details

Date: 19 May 2025
Orbit: 738 x 740 km, 108.0° (Epoch: 18 June)

Event Time Altitude Azimuth Distance (km) Brightness Sun altitude
Exits shadow 21:36:43 16° 143° (SE) 1,865 3.8 -11.6°
Maximum altitude 21:40:39 83° 57° (ENE) 753 2.5 -11.9°
Drops below altitude 10° 21:45:35 10° 330° (NNW) 2,261 6.5 -12.3°
Sets 21:47:51 0° 330° (NNW) 3,188 7.9 -12.5°
